This is the latest recevied weather packets stored in our database for station/object N4BBA. If no packets are shown the sender has not sent any weather packets the latest 10 day(s).
| Time | Temp. | Humidity | Pressure | Rain* | Wind** | Luminosity | Snow |
|---|---|---|---|---|---|---|---|
| 1777549700 | 15° C | 98% | 1008.8 hPa | 0 mm | - | 37 W/m² | - |
| 1777549400 | 15° C | 98% | 1008.7 hPa | 0 mm | - | 35 W/m² | - |
| 1777549098 | 15° C | 98% | 1008.8 hPa | 0 mm | - | 45 W/m² | - |
| 1777548794 | 15° C | 98% | 1008.6 hPa | 0 mm | - | 35 W/m² | - |
| 1777548492 | 15° C | 98% | 1008.5 hPa | 0 mm | - | 19 W/m² | - |
| 1777548188 | 15° C | 98% | 1008.4 hPa | 0 mm | - | 24 W/m² | - |
| 1777547884 | 15° C | 98% | 1008.5 hPa | 0 mm | - | 29 W/m² | - |
| 1777547580 | 15° C | 98% | 1008.5 hPa | 0 mm | - | 15 W/m² | - |
| 1777547278 | 15° C | 98% | 1008.4 hPa | 0 mm | - | 12 W/m² | - |
| 1777546975 | 15° C | 98% | 1008.5 hPa | 0 mm | - | 13 W/m² | - |
| 1777546672 | 15° C | 98% | 1008.5 hPa | 0 mm | - | 15 W/m² | - |
| 1777546368 | 15° C | 98% | 1008.2 hPa | 0 mm | - | 7 W/m² | - |
| 1777546066 | 15° C | 98% | 1008.4 hPa | 0 mm | - | 9 W/m² | - |
| 1777545762 | 15.56° C | 98% | 1008.2 hPa | 0 mm | - | 7 W/m² | - |
| 1777545459 | 15.56° C | 98% | 1008.3 hPa | 0 mm | - | 3 W/m² | - |
| 1777545156 | 15.56° C | 98% | 1008.4 hPa | 0 mm | - | 2 W/m² | - |
| 1777544853 | 15.56° C | 98% | 1008.3 hPa | 0 mm | - | 1 W/m² | - |
| 1777544549 | 15.56° C | 98% | 1008.2 hPa | 0 mm | - | 1 W/m² | - |
| 1777544246 | 15.56° C | 98% | 1008.2 hPa | 0 mm | - | 1 W/m² | - |
| 1777543943 | 16.11° C | 98% | 1008.1 hPa | 0 mm | - | 0 W/m² | - |
| 1777543640 | 16.11° C | 98% | 1008 hPa | 0 mm | - | 0 W/m² | - |
| 1777543335 | 16.11° C | 98% | 1008.4 hPa | 0 mm | - | 0 W/m² | - |
| 1777543031 | 16.11° C | 98% | 1008.1 hPa | 0 mm | - | 0 W/m² | - |
| 1777542728 | 16.11° C | 98% | 1008.2 hPa | 0 mm | - | 0 W/m² | - |
| 1777542425 | 15.56° C | 98% | 1008.1 hPa | 0 mm | - | 0 W/m² | - |
* Rain latest hour (hover to see other rain measurements)
** Current wind speed in m/s (hover to see current wind gust speed)